Location: Boiro
(42.6475°N, 8.8834°W)
Time: 19:05:13
(UTC+01:00)

Transit 2A - Pass Details

Date: 02 December 2021
Orbit: 591 x 967 km, 66.7° (Epoch: 20 January)

Event Time Altitude Azimuth Distance (km) Brightness Sun altitude
Rises 09:27:42 0° 334° (NNW) 3,652 8.9 5.4°
Reaches altitude 10° 09:30:42 10° 346° (NNW) 2,713 8.4 5.8°
Maximum altitude 09:36:05 27° 43° (NE) 1,742 8.0 6.6°
Drops below altitude 10° 09:41:19 10° 100° (E) 2,645 10.1 7.4°
Sets 09:44:12 0° 113° (ESE) 3,545 11.1 7.8°
